TOM1620 EGPF-LFLB

Flight info

Callsign TOM1620
Flight time 2h 1m
Altitude 37000
Route NORBO T256 RIPNO DCT AKOMU DCT VAMEB UL612 OGULO DCT OKASI DCT OKEKO DCT OKIRA DCT MOU DCT FEDZI
Aircraft B38M/M-SDE1FGHILORVWXY/HB1

Departure

Time 2026-04-25 12:30
Airport Glasgow Airport (EGPF)

Arrival

Time 2026-04-25 14:31
Airport Chambéry Aix les Bains airport (LFLB)
Time Latitude Longitude Altitude Speed Heading
2026-04-25 11:43 55.86617 -4.43432 31 ft 0 kts 74°
2026-04-25 12:21 55.86617 -4.43435 31 ft 2 kts 74°
2026-04-25 12:21 55.86608 -4.43478 31 ft 4 kts 64°
2026-04-25 12:21 55.86594 -4.43518 31 ft 4 kts 45°
2026-04-25 12:21 55.86573 -4.43540 31 ft 4 kts
2026-04-25 12:22 55.86561 -4.43537 31 ft 1 kts 344°
2026-04-25 12:22 55.86560 -4.43537 31 ft 0 kts 344°
2026-04-25 12:24 55.86561 -4.43537 31 ft 1 kts 344°
2026-04-25 12:25 55.86581 -4.43547 31 ft 6 kts 344°
2026-04-25 12:25 55.86643 -4.43579 31 ft 13 kts 344°
2026-04-25 12:25 55.86727 -4.43639 31 ft 13 kts 308°
2026-04-25 12:25 55.86703 -4.43814 31 ft 19 kts 225°
2026-04-25 12:26 55.86608 -4.43984 31 ft 20 kts 225°
2026-04-25 12:26 55.86506 -4.44177 31 ft 22 kts 227°
2026-04-25 12:26 55.86401 -4.44375 31 ft 21 kts 226°
2026-04-25 12:26 55.86301 -4.44563 31 ft 19 kts 227°
2026-04-25 12:27 55.86263 -4.44710 31 ft 14 kts 290°
2026-04-25 12:27 55.86282 -4.44762 31 ft 0 kts 312°
2026-04-25 12:28 55.86289 -4.44776 31 ft 4 kts 313°
2026-04-25 12:28 55.86326 -4.44839 31 ft 0 kts 316°
2026-04-25 12:28 55.86337 -4.44856 31 ft 7 kts 324°
2026-04-25 12:29 55.86398 -4.44825 31 ft 7 kts 47°
2026-04-25 12:29 55.86422 -4.44776 31 ft 0 kts 46°
2026-04-25 12:29 55.86461 -4.44703 31 ft 33 kts 46°
2026-04-25 12:30 55.86653 -4.44333 31 ft 89 kts 47°
2026-04-25 12:30 55.87513 -4.42712 112 ft 169 kts 49°
2026-04-25 12:30 55.88342 -4.41072 841 ft 181 kts 50°
2026-04-25 12:30 55.89168 -4.39513 2038 ft 171 kts 47°
2026-04-25 12:31 55.90039 -4.37900 2633 ft 191 kts 47°
2026-04-25 12:31 55.90988 -4.36073 3199 ft 211 kts 48°
2026-04-25 12:31 55.92025 -4.34116 3910 ft 225 kts 44°
2026-04-25 12:31 55.93327 -4.32406 4496 ft 243 kts 20°
2026-04-25 12:32 55.95034 -4.32007 5127 ft 257 kts 349°
2026-04-25 12:32 55.96717 -4.33192 5678 ft 264 kts 321°
2026-04-25 12:32 55.97874 -4.35661 5878 ft 261 kts 292°
2026-04-25 12:32 55.98202 -4.38824 5981 ft 260 kts 265°
2026-04-25 12:33 55.97685 -4.41906 6015 ft 262 kts 245°
2026-04-25 12:33 55.96924 -4.44818 5994 ft 263 kts 246°
2026-04-25 12:33 55.96148 -4.47809 5987 ft 263 kts 246°
2026-04-25 12:33 55.95262 -4.50674 5989 ft 264 kts 232°
2026-04-25 12:34 55.93996 -4.53054 6002 ft 265 kts 227°
2026-04-25 12:34 55.92710 -4.55416 5988 ft 265 kts 227°
2026-04-25 12:34 55.91423 -4.57757 5990 ft 265 kts 226°
2026-04-25 12:34 55.90568 -4.59307 6011 ft 265 kts 226°
2026-04-25 12:35 55.88834 -4.62446 5986 ft 265 kts 226°
2026-04-25 12:35 55.87535 -4.64786 5985 ft 265 kts 226°
2026-04-25 12:35 55.86162 -4.66976 6000 ft 266 kts 216°
2026-04-25 12:35 55.84585 -4.68717 5976 ft 267 kts 212°
2026-04-25 12:36 55.83002 -4.70430 6009 ft 267 kts 212°
2026-04-25 12:36 55.81423 -4.72153 5960 ft 266 kts 212°
2026-04-25 12:36 55.79842 -4.73889 6011 ft 267 kts 212°
2026-04-25 12:36 55.78120 -4.75039 5981 ft 267 kts 188°
2026-04-25 12:37 55.76249 -4.75214 5981 ft 269 kts 184°
2026-04-25 12:37 55.74377 -4.75358 5980 ft 270 kts 184°
2026-04-25 12:37 55.72498 -4.75485 5997 ft 269 kts 184°
2026-04-25 12:37 55.70650 -4.75611 5994 ft 270 kts 183°
2026-04-25 12:38 55.68768 -4.75712 5976 ft 270 kts 183°
2026-04-25 12:38 55.66874 -4.75815 5942 ft 269 kts 182°
2026-04-25 12:38 55.65023 -4.75915 5956 ft 269 kts 182°
2026-04-25 12:38 55.63146 -4.76017 5995 ft 270 kts 183°
2026-04-25 12:39 55.61268 -4.76113 5951 ft 270 kts 181°
2026-04-25 12:39 55.59432 -4.75412 6277 ft 274 kts 153°
2026-04-25 12:39 55.57884 -4.73481 7250 ft 274 kts 143°
2026-04-25 12:39 55.56353 -4.71397 8090 ft 280 kts 143°
2026-04-25 12:40 55.54810 -4.69252 8995 ft 284 kts 142°
2026-04-25 12:40 55.53254 -4.67065 9879 ft 288 kts 142°
2026-04-25 12:40 55.51674 -4.64829 10629 ft 297 kts 142°
2026-04-25 12:40 55.50014 -4.62467 11042 ft 316 kts 142°
2026-04-25 12:41 55.48249 -4.59954 11429 ft 336 kts 142°
2026-04-25 12:41 55.46390 -4.57305 11948 ft 350 kts 142°
2026-04-25 12:41 55.44484 -4.54590 12728 ft 353 kts 142°
2026-04-25 12:41 55.42565 -4.51862 13575 ft 358 kts 142°
2026-04-25 12:42 55.40615 -4.49093 14329 ft 361 kts 142°
2026-04-25 12:42 55.39319 -4.47253 14828 ft 363 kts 142°
2026-04-25 12:42 55.36669 -4.43499 15799 ft 367 kts 142°
2026-04-25 12:42 55.34668 -4.40668 16530 ft 371 kts 142°
2026-04-25 12:43 55.32648 -4.37814 17226 ft 374 kts 142°
2026-04-25 12:43 55.30617 -4.34947 17901 ft 377 kts 142°
2026-04-25 12:43 55.26493 -4.29139 19143 ft 383 kts 142°
2026-04-25 12:44 55.24401 -4.26199 19711 ft 386 kts 142°
2026-04-25 12:44 55.22298 -4.23249 20238 ft 390 kts 142°
2026-04-25 12:44 55.18035 -4.17253 21316 ft 396 kts 140°
2026-04-25 12:45 55.16112 -4.13852 21845 ft 400 kts 134°
2026-04-25 12:45 55.14188 -4.10318 22373 ft 403 kts 134°
2026-04-25 12:45 55.10292 -4.03140 23423 ft 410 kts 134°
2026-04-25 12:46 55.08321 -3.99516 23920 ft 414 kts 134°
2026-04-25 12:46 55.06331 -3.95862 24395 ft 416 kts 134°
2026-04-25 12:46 55.04329 -3.92192 24859 ft 418 kts 134°
2026-04-25 12:46 55.02321 -3.88517 25351 ft 420 kts 134°
2026-04-25 12:47 55.00298 -3.84818 25813 ft 423 kts 134°
2026-04-25 12:47 54.98259 -3.81099 26272 ft 425 kts 134°
2026-04-25 12:47 54.96210 -3.77364 26722 ft 428 kts 134°
2026-04-25 12:47 54.94068 -3.73750 27143 ft 430 kts 144°
2026-04-25 12:48 54.91546 -3.70977 27582 ft 431 kts 149°
2026-04-25 12:48 54.88989 -3.68203 27969 ft 434 kts 148°
2026-04-25 12:48 54.86413 -3.65433 28397 ft 436 kts 149°
2026-04-25 12:48 54.83831 -3.62678 28793 ft 439 kts 149°
2026-04-25 12:49 54.81213 -3.59896 29200 ft 441 kts 149°
2026-04-25 12:49 54.78592 -3.57117 29592 ft 443 kts 149°
2026-04-25 12:49 54.75960 -3.54331 29950 ft 446 kts 149°
2026-04-25 12:49 54.73302 -3.51522 30307 ft 448 kts 149°
2026-04-25 12:50 54.70635 -3.48709 30621 ft 450 kts 149°
2026-04-25 12:50 54.67950 -3.45880 30916 ft 453 kts 149°
2026-04-25 12:50 54.65254 -3.43045 31251 ft 454 kts 149°
2026-04-25 12:50 54.62553 -3.40207 31667 ft 454 kts 149°
2026-04-25 12:51 54.59856 -3.37379 32066 ft 454 kts 149°
2026-04-25 12:51 54.57154 -3.34551 32462 ft 454 kts 150°
2026-04-25 12:51 54.54456 -3.31731 32862 ft 454 kts 150°
2026-04-25 12:51 54.51757 -3.28914 33249 ft 453 kts 150°
2026-04-25 12:52 54.49064 -3.26107 33637 ft 453 kts 150°
2026-04-25 12:52 54.46361 -3.23296 34016 ft 453 kts 150°
2026-04-25 12:52 54.43666 -3.20496 34362 ft 454 kts 150°
2026-04-25 12:52 54.40964 -3.17693 34676 ft 454 kts 150°
2026-04-25 12:53 54.38265 -3.14897 34995 ft 454 kts 150°
2026-04-25 12:53 54.35565 -3.12107 35315 ft 453 kts 150°
2026-04-25 12:53 54.32859 -3.09313 35633 ft 453 kts 150°
2026-04-25 12:53 54.30156 -3.06527 35930 ft 453 kts 150°
2026-04-25 12:54 54.27460 -3.03753 36244 ft 453 kts 150°
2026-04-25 12:54 54.24755 -3.00973 36541 ft 453 kts 150°
2026-04-25 12:54 54.22060 -2.98207 36832 ft 452 kts 150°
2026-04-25 12:54 54.19360 -2.95439 37114 ft 452 kts 150°
2026-04-25 12:55 54.15639 -2.92084 37203 ft 450 kts 159°
2026-04-25 12:55 54.07986 -2.86490 37204 ft 450 kts 158°
2026-04-25 12:56 54.02227 -2.82303 37205 ft 450 kts 158°
2026-04-25 12:56 53.96605 -2.78224 37207 ft 450 kts 158°
2026-04-25 12:57 53.91816 -2.74759 37209 ft 451 kts 159°
2026-04-25 12:57 53.86040 -2.70594 37208 ft 451 kts 159°
2026-04-25 12:58 53.80258 -2.66437 37206 ft 451 kts 159°
2026-04-25 12:58 53.74479 -2.62295 37205 ft 451 kts 159°
2026-04-25 12:59 53.68700 -2.58165 37201 ft 452 kts 159°
2026-04-25 12:59 53.62901 -2.54034 37210 ft 452 kts 159°
2026-04-25 13:00 53.58088 -2.50613 37201 ft 452 kts 159°
2026-04-25 13:00 53.51317 -2.45815 37205 ft 452 kts 159°
2026-04-25 13:01 53.45514 -2.41717 37208 ft 452 kts 159°
2026-04-25 13:01 53.39701 -2.37624 37211 ft 453 kts 159°
2026-04-25 13:02 53.33897 -2.33550 37212 ft 452 kts 159°
2026-04-25 13:02 53.28096 -2.29490 37206 ft 452 kts 159°
2026-04-25 13:03 53.22280 -2.25430 37209 ft 452 kts 159°
2026-04-25 13:03 53.16472 -2.21390 37218 ft 453 kts 159°
2026-04-25 13:04 53.10662 -2.17359 37208 ft 453 kts 159°
2026-04-25 13:04 53.04847 -2.13337 37205 ft 453 kts 159°
2026-04-25 13:05 52.99023 -2.09320 37206 ft 453 kts 159°
2026-04-25 13:05 52.93200 -2.05317 37204 ft 453 kts 159°
2026-04-25 13:06 52.87371 -2.01320 37217 ft 453 kts 159°
2026-04-25 13:06 52.81551 -1.97341 37210 ft 453 kts 159°
2026-04-25 13:07 52.75712 -1.93361 37212 ft 453 kts 159°
2026-04-25 13:07 52.69984 -1.89467 37213 ft 454 kts 159°
2026-04-25 13:08 52.64190 -1.85541 37211 ft 454 kts 159°
2026-04-25 13:08 52.58314 -1.81569 37212 ft 454 kts 159°
2026-04-25 13:09 52.52475 -1.77634 37210 ft 454 kts 160°
2026-04-25 13:09 52.46626 -1.73705 37210 ft 454 kts 160°
2026-04-25 13:10 52.40824 -1.69817 37210 ft 454 kts 160°
2026-04-25 13:10 52.35020 -1.65758 37205 ft 455 kts 154°
2026-04-25 13:11 52.29399 -1.61034 37209 ft 455 kts 155°
2026-04-25 13:11 52.23726 -1.56418 37186 ft 455 kts 155°
2026-04-25 13:12 52.18051 -1.51835 37183 ft 455 kts 155°
2026-04-25 13:12 52.13293 -1.48005 37184 ft 455 kts 155°
2026-04-25 13:13 52.06698 -1.42697 37187 ft 456 kts 155°
2026-04-25 13:13 52.01118 -1.38168 37208 ft 456 kts 155°
2026-04-25 13:14 51.95443 -1.33580 37208 ft 456 kts 155°
2026-04-25 13:14 51.89758 -1.28997 37212 ft 456 kts 155°
2026-04-25 13:15 51.84077 -1.24432 37213 ft 456 kts 155°
2026-04-25 13:15 51.78397 -1.19880 37211 ft 456 kts 155°
2026-04-25 13:16 51.72706 -1.15332 37185 ft 456 kts 156°
2026-04-25 13:16 51.67015 -1.10796 37184 ft 456 kts 156°
2026-04-25 13:17 51.61348 -1.06180 37173 ft 458 kts 149°
2026-04-25 13:17 51.56146 -1.00246 37181 ft 459 kts 147°
2026-04-25 13:18 51.50976 -0.94358 37184 ft 459 kts 147°
2026-04-25 13:18 51.45715 -0.88445 37206 ft 458 kts 152°
2026-04-25 13:19 51.39942 -0.84510 37199 ft 455 kts 159°
2026-04-25 13:19 51.37174 -0.82057 37211 ft 457 kts 147°
2026-04-25 13:19 51.35403 -0.80108 37209 ft 457 kts 150°
2026-04-25 13:20 51.29045 -0.73936 37210 ft 457 kts 151°
2026-04-25 13:20 51.23616 -0.68776 37211 ft 457 kts 152°
2026-04-25 13:21 51.18145 -0.63599 37209 ft 457 kts 152°
2026-04-25 13:21 51.12679 -0.58443 37207 ft 457 kts 152°
2026-04-25 13:22 51.07219 -0.53306 37210 ft 456 kts 152°
2026-04-25 13:23 50.99016 -0.45615 37209 ft 456 kts 152°
2026-04-25 13:23 50.93552 -0.40510 37209 ft 455 kts 152°
2026-04-25 13:24 50.88096 -0.35426 37210 ft 455 kts 152°
2026-04-25 13:24 50.82638 -0.30353 37202 ft 455 kts 152°
2026-04-25 13:25 50.77184 -0.25300 37212 ft 454 kts 152°
2026-04-25 13:25 50.71733 -0.20262 37219 ft 454 kts 152°
2026-04-25 13:26 50.66293 -0.15249 37208 ft 453 kts 152°
2026-04-25 13:26 50.60958 -0.10345 37221 ft 453 kts 153°
2026-04-25 13:27 50.55514 -0.05355 37219 ft 452 kts 153°
2026-04-25 13:27 50.50079 -0.00386 37217 ft 452 kts 153°
2026-04-25 13:28 50.44653 0.04561 37217 ft 451 kts 153°
2026-04-25 13:28 50.39255 0.09471 37215 ft 451 kts 153°
2026-04-25 13:29 50.33820 0.14400 37210 ft 451 kts 153°
2026-04-25 13:29 50.28380 0.19320 37210 ft 451 kts 153°
2026-04-25 13:30 50.20250 0.26747 37201 ft 453 kts 148°
2026-04-25 13:31 50.12385 0.34920 37206 ft 453 kts 149°
2026-04-25 13:31 50.07111 0.40296 37202 ft 453 kts 150°
2026-04-25 13:32 50.01834 0.45657 37201 ft 453 kts 150°
2026-04-25 13:32 49.96554 0.51005 37195 ft 453 kts 150°
2026-04-25 13:33 49.91271 0.56342 37197 ft 453 kts 150°
2026-04-25 13:33 49.85998 0.61690 37190 ft 454 kts 147°
2026-04-25 13:34 49.81056 0.67824 37187 ft 456 kts 144°
2026-04-25 13:34 49.76167 0.73968 37183 ft 456 kts 144°
2026-04-25 13:35 49.71207 0.80191 37186 ft 456 kts 144°
2026-04-25 13:35 49.66314 0.86314 37179 ft 456 kts 144°
2026-04-25 13:36 49.61383 0.92468 37174 ft 456 kts 144°
2026-04-25 13:36 49.56448 0.98610 37166 ft 456 kts 144°
2026-04-25 13:37 49.51511 1.04739 37161 ft 456 kts 144°
2026-04-25 13:37 49.46571 1.10855 37155 ft 456 kts 144°
2026-04-25 13:38 49.41635 1.16951 37154 ft 456 kts 144°
2026-04-25 13:38 49.36683 1.23050 37158 ft 456 kts 144°
2026-04-25 13:39 49.31735 1.29129 37155 ft 456 kts 144°
2026-04-25 13:39 49.26786 1.35192 37158 ft 456 kts 144°
2026-04-25 13:40 49.21838 1.41240 37159 ft 456 kts 144°
2026-04-25 13:40 49.16876 1.47286 37162 ft 456 kts 144°
2026-04-25 13:41 49.11915 1.53317 37156 ft 456 kts 144°
2026-04-25 13:41 49.06954 1.59332 37158 ft 456 kts 144°
2026-04-25 13:42 49.01991 1.65334 37152 ft 456 kts 144°
2026-04-25 13:42 48.97054 1.71288 37151 ft 456 kts 144°
2026-04-25 13:43 48.92048 1.77310 37155 ft 456 kts 144°
2026-04-25 13:43 48.87108 1.83237 37151 ft 456 kts 144°
2026-04-25 13:44 48.82129 1.89194 37154 ft 455 kts 144°
2026-04-25 13:44 48.77154 1.95133 37153 ft 455 kts 144°
2026-04-25 13:45 48.72364 2.00835 37158 ft 456 kts 144°
2026-04-25 13:45 48.68221 2.05756 37155 ft 455 kts 144°
2026-04-25 13:46 48.63255 2.11641 37157 ft 456 kts 144°
2026-04-25 13:46 48.58247 2.17565 37151 ft 456 kts 144°
2026-04-25 13:47 48.53613 2.24159 37147 ft 458 kts 137°
2026-04-25 13:47 48.49117 2.30964 37143 ft 458 kts 137°
2026-04-25 13:48 48.44614 2.37780 37137 ft 459 kts 137°
2026-04-25 13:48 48.40113 2.44576 37128 ft 458 kts 137°
2026-04-25 13:49 48.35602 2.51370 37136 ft 459 kts 137°
2026-04-25 13:49 48.31090 2.58148 37131 ft 459 kts 137°
2026-04-25 13:50 48.26070 2.63825 37143 ft 450 kts 158°
2026-04-25 13:50 48.20446 2.68062 37136 ft 454 kts 153°
2026-04-25 13:51 48.14894 2.72565 37135 ft 454 kts 154°
2026-04-25 13:51 48.09303 2.76983 37132 ft 454 kts 155°
2026-04-25 13:52 48.03547 2.80815 37134 ft 453 kts 159°
2026-04-25 13:52 47.97755 2.84515 37138 ft 453 kts 159°
2026-04-25 13:53 47.91994 2.88174 37130 ft 453 kts 159°
2026-04-25 13:53 47.86190 2.91849 37135 ft 453 kts 159°
2026-04-25 13:54 47.80388 2.95515 37132 ft 453 kts 159°
2026-04-25 13:54 47.74572 2.99180 37130 ft 454 kts 159°
2026-04-25 13:55 47.68760 3.02834 37133 ft 454 kts 159°
2026-04-25 13:55 47.62945 3.06480 37128 ft 454 kts 159°
2026-04-25 13:56 47.57116 3.10128 37130 ft 454 kts 159°
2026-04-25 13:56 47.51295 3.13760 37131 ft 454 kts 159°
2026-04-25 13:57 47.45469 3.17387 37131 ft 454 kts 159°
2026-04-25 13:57 47.39634 3.21010 37124 ft 455 kts 159°
2026-04-25 13:58 47.33802 3.24624 37122 ft 455 kts 159°
2026-04-25 13:58 47.27969 3.28229 37121 ft 455 kts 159°
2026-04-25 13:59 47.22123 3.31833 37122 ft 455 kts 159°
2026-04-25 13:59 47.16280 3.35427 37138 ft 455 kts 159°
2026-04-25 14:00 47.11426 3.38406 37124 ft 455 kts 159°
2026-04-25 14:00 47.04586 3.42595 37132 ft 456 kts 159°
2026-04-25 14:01 46.98728 3.46169 37127 ft 456 kts 159°
2026-04-25 14:01 46.92899 3.49717 36473 ft 452 kts 159°
2026-04-25 14:01 46.89986 3.51488 35662 ft 455 kts 159°
2026-04-25 14:02 46.87060 3.53263 34909 ft 456 kts 159°
2026-04-25 14:02 46.84125 3.55043 34176 ft 457 kts 159°
2026-04-25 14:02 46.81180 3.56826 33312 ft 459 kts 159°
2026-04-25 14:02 46.79229 3.58007 32757 ft 460 kts 159°
2026-04-25 14:03 46.75275 3.60396 31695 ft 460 kts 159°
2026-04-25 14:03 46.72307 3.62187 30809 ft 463 kts 159°
2026-04-25 14:03 46.69306 3.63896 29899 ft 465 kts 160°
2026-04-25 14:03 46.66274 3.65580 28959 ft 466 kts 160°
2026-04-25 14:04 46.63271 3.67258 28447 ft 458 kts 160°
2026-04-25 14:04 46.60360 3.68887 28475 ft 439 kts 160°
2026-04-25 14:04 46.57565 3.70449 28499 ft 422 kts 160°
2026-04-25 14:04 46.54916 3.71927 28516 ft 406 kts 160°
2026-04-25 14:05 46.52280 3.73398 28065 ft 401 kts 160°
2026-04-25 14:05 46.49624 3.74878 26960 ft 415 kts 160°
2026-04-25 14:05 46.46909 3.76390 25931 ft 417 kts 160°
2026-04-25 14:05 46.44229 3.77881 24955 ft 425 kts 160°
2026-04-25 14:06 46.41429 3.79436 23936 ft 435 kts 160°
2026-04-25 14:06 46.38695 3.81314 22919 ft 437 kts 147°
2026-04-25 14:06 46.36386 3.84183 22219 ft 439 kts 131°
2026-04-25 14:06 46.34621 3.87787 21796 ft 439 kts 120°
2026-04-25 14:07 46.33134 3.91637 21305 ft 437 kts 118°
2026-04-25 14:07 46.31694 3.95493 20820 ft 434 kts 117°
2026-04-25 14:07 46.30279 3.99339 20323 ft 431 kts 117°
2026-04-25 14:07 46.28885 4.03163 19841 ft 429 kts 117°
2026-04-25 14:08 46.27505 4.06960 19360 ft 425 kts 117°
2026-04-25 14:08 46.26137 4.10729 18876 ft 422 kts 117°
2026-04-25 14:08 46.24774 4.14476 18394 ft 420 kts 117°
2026-04-25 14:08 46.23419 4.18195 17858 ft 417 kts 117°
2026-04-25 14:09 46.22067 4.21890 17380 ft 414 kts 117°
2026-04-25 14:09 46.20726 4.25550 16890 ft 411 kts 117°
2026-04-25 14:09 46.19400 4.29177 16433 ft 408 kts 116°
2026-04-25 14:09 46.18522 4.31579 16116 ft 406 kts 116°
2026-04-25 14:10 46.16768 4.36376 15512 ft 402 kts 116°
2026-04-25 14:10 46.15524 4.39975 15149 ft 398 kts 109°
2026-04-25 14:10 46.14930 4.43825 14934 ft 393 kts 91°
2026-04-25 14:10 46.15067 4.47725 14779 ft 391 kts 82°
2026-04-25 14:11 46.15382 4.51626 14584 ft 389 kts 81°
2026-04-25 14:11 46.15726 4.55445 14392 ft 388 kts 81°
2026-04-25 14:11 46.16091 4.59297 14193 ft 386 kts 80°
2026-04-25 14:11 46.16464 4.63117 14000 ft 382 kts 80°
2026-04-25 14:12 46.16833 4.66860 13808 ft 371 kts 80°
2026-04-25 14:12 46.17194 4.70497 13615 ft 361 kts 80°
2026-04-25 14:12 46.17545 4.74033 13429 ft 351 kts 80°
2026-04-25 14:12 46.17885 4.77467 13261 ft 341 kts 80°
2026-04-25 14:13 46.18212 4.80784 13109 ft 329 kts 80°
2026-04-25 14:13 46.18527 4.83979 12941 ft 312 kts 80°
2026-04-25 14:13 46.18823 4.86998 12796 ft 295 kts 80°
2026-04-25 14:13 46.19104 4.89876 12649 ft 278 kts 79°
2026-04-25 14:14 46.19364 4.92539 12516 ft 267 kts 79°
2026-04-25 14:14 46.19627 4.95229 12386 ft 267 kts 79°
2026-04-25 14:14 46.19881 4.97844 12250 ft 266 kts 80°
2026-04-25 14:14 46.20138 5.00492 12118 ft 266 kts 80°
2026-04-25 14:15 46.20393 5.03130 11980 ft 265 kts 80°
2026-04-25 14:15 46.20478 5.04020 11929 ft 265 kts 79°
2026-04-25 14:15 46.20899 5.08390 11710 ft 264 kts 80°
2026-04-25 14:15 46.21150 5.11012 11584 ft 263 kts 80°
2026-04-25 14:16 46.21400 5.13626 11458 ft 263 kts 80°
2026-04-25 14:16 46.21649 5.16238 11324 ft 262 kts 80°
2026-04-25 14:16 46.21899 5.18848 11192 ft 262 kts 80°
2026-04-25 14:16 46.22147 5.21449 11066 ft 261 kts 80°
2026-04-25 14:17 46.22330 5.24058 10924 ft 262 kts 91°
2026-04-25 14:17 46.21857 5.26591 10776 ft 264 kts 113°
2026-04-25 14:17 46.21091 5.29019 10662 ft 266 kts 112°
2026-04-25 14:17 46.20330 5.31448 10534 ft 265 kts 112°
2026-04-25 14:18 46.19451 5.33787 10391 ft 266 kts 128°
2026-04-25 14:18 46.18001 5.35403 10232 ft 267 kts 157°
2026-04-25 14:18 46.16192 5.35890 10107 ft 266 kts 185°
2026-04-25 14:18 46.14415 5.35244 9997 ft 265 kts 205°
2026-04-25 14:19 46.12721 5.34186 9861 ft 266 kts 202°
2026-04-25 14:19 46.10907 5.33812 9676 ft 266 kts 172°
2026-04-25 14:19 46.09188 5.34696 9548 ft 264 kts 147°
2026-04-25 14:19 46.07680 5.36204 9463 ft 265 kts 144°
2026-04-25 14:20 46.06175 5.37744 9329 ft 264 kts 143°
2026-04-25 14:20 46.05673 5.38262 9280 ft 264 kts 143°
2026-04-25 14:20 46.03208 5.40827 9052 ft 262 kts 143°
2026-04-25 14:20 46.01733 5.42370 8915 ft 261 kts 143°
2026-04-25 14:21 46.00265 5.43910 8798 ft 261 kts 143°
2026-04-25 14:21 45.98802 5.45444 8670 ft 260 kts 143°
2026-04-25 14:21 45.97346 5.46970 8530 ft 259 kts 143°
2026-04-25 14:21 45.95888 5.48501 8407 ft 259 kts 143°
2026-04-25 14:22 45.94437 5.50024 8294 ft 258 kts 143°
2026-04-25 14:22 45.92982 5.51549 8148 ft 258 kts 143°
2026-04-25 14:22 45.91537 5.53062 8026 ft 257 kts 143°
2026-04-25 14:22 45.90101 5.54565 7887 ft 252 kts 143°
2026-04-25 14:23 45.88733 5.56069 7752 ft 244 kts 134°
2026-04-25 14:23 45.87888 5.58091 7568 ft 234 kts 103°
2026-04-25 14:23 45.87595 5.60323 7504 ft 221 kts 97°
2026-04-25 14:23 45.87348 5.62448 7412 ft 211 kts 97°
2026-04-25 14:24 45.87124 5.64495 7272 ft 204 kts 96°
2026-04-25 14:24 45.86915 5.66464 7140 ft 196 kts 96°
2026-04-25 14:24 45.86717 5.68369 7007 ft 192 kts 95°
2026-04-25 14:24 45.86522 5.70271 6909 ft 193 kts 95°
2026-04-25 14:25 45.86328 5.72161 6829 ft 190 kts 96°
2026-04-25 14:25 45.86140 5.74022 6676 ft 188 kts 95°
2026-04-25 14:25 45.85959 5.75877 6574 ft 188 kts 96°
2026-04-25 14:25 45.85898 5.76478 6555 ft 188 kts 96°
2026-04-25 14:26 45.85765 5.79553 6198 ft 188 kts 84°
2026-04-25 14:26 45.85850 5.81492 5823 ft 191 kts 84°
2026-04-25 14:26 45.85906 5.83267 5901 ft 166 kts 91°
2026-04-25 14:26 45.85512 5.84812 5764 ft 172 kts 127°
2026-04-25 14:27 45.84564 5.85870 5662 ft 182 kts 158°
2026-04-25 14:27 45.83310 5.86264 5521 ft 188 kts 174°
2026-04-25 14:27 45.82005 5.86450 5318 ft 189 kts 176°
2026-04-25 14:27 45.80692 5.86599 5110 ft 189 kts 176°
2026-04-25 14:28 45.79387 5.86726 4932 ft 188 kts 177°
2026-04-25 14:28 45.78069 5.86841 4604 ft 191 kts 178°
2026-04-25 14:28 45.76758 5.86954 4225 ft 187 kts 178°
2026-04-25 14:28 45.75463 5.87050 3898 ft 187 kts 179°
2026-04-25 14:29 45.74188 5.87159 3557 ft 177 kts 178°
2026-04-25 14:29 45.73008 5.87265 3251 ft 164 kts 179°
2026-04-25 14:29 45.71891 5.87359 2906 ft 158 kts 178°
2026-04-25 14:29 45.70797 5.87450 2598 ft 157 kts 178°
2026-04-25 14:30 45.69709 5.87539 2277 ft 157 kts 176°
2026-04-25 14:30 45.67515 5.87730 1617 ft 158 kts 179°
2026-04-25 14:30 45.66430 5.87784 1348 ft 155 kts 178°
2026-04-25 14:31 45.65356 5.87892 1042 ft 155 kts 178°
2026-04-25 14:31 45.64287 5.87973 797 ft 148 kts 178°
2026-04-25 14:31 45.63680 5.88026 784 ft 109 kts 175°
2026-04-25 14:31 45.63273 5.88063 786 ft 25 kts 176°
2026-04-25 14:32 45.63158 5.88120 787 ft 16 kts 114°
2026-04-25 14:32 45.63180 5.88249 786 ft 13 kts 38°
2026-04-25 14:32 45.63246 5.88270 786 ft 9 kts 357°
2026-04-25 14:32 45.63319 5.88267 786 ft 12 kts 359°
2026-04-25 14:33 45.63409 5.88260 786 ft 14 kts 354°
2026-04-25 14:33 45.63494 5.88251 786 ft 13 kts 356°
2026-04-25 14:33 45.63592 5.88244 786 ft 14 kts 357°
2026-04-25 14:33 45.63680 5.88237 786 ft 13 kts 356°
2026-04-25 14:34 45.63748 5.88231 786 ft 6 kts 356°
2026-04-25 14:34 45.63795 5.88237 786 ft 6 kts 13°
2026-04-25 14:34 45.63836 5.88255 786 ft 7 kts 40°
2026-04-25 14:34 45.63847 5.88298 786 ft 3 kts 80°
2026-04-25 14:35 45.63849 5.88322 786 ft 0 kts 84°